Time,TemperatureF,DewpointF,PressureIn,WindDirection,WindDirectionDegrees,WindSpeedMPH,WindSpeedGustMPH,Humidity,HourlyPrecipIn,Conditions,Clouds,dailyrainin,SoftwareType,DateUTC
2013-03-12 00:00:00,53.4,52.8,29.74,WSW,257,4.8,4.8,97,0.02,,,1.18,dv,2013-03-12 04:00:00,
2013-03-12 00:05:00,53.4,52.8,29.74,WSW,253,3.2,3.2,97,0.00,,,0.00,dv,2013-03-12 04:05:00,
2013-03-12 00:10:00,53.2,52.6,29.73,WSW,240,6.4,6.4,97,0.00,,,0.00,dv,2013-03-12 04:10:00,
2013-03-12 00:15:00,53.1,52.5,29.74,West,271,8.1,8.1,97,0.00,,,0.00,dv,2013-03-12 04:15:00,
2013-03-12 00:20:00,53.0,52.4,29.74,WNW,291,6.4,6.4,97,0.00,,,0.00,dv,2013-03-12 04:20:00,
2013-03-12 00:25:00,52.9,52.3,29.74,West,279,6.4,6.4,97,0.00,,,0.00,dv,2013-03-12 04:25:00,
2013-03-12 00:30:00,52.8,52.2,29.74,West,273,6.4,6.4,97,0.00,,,0.01,dv,2013-03-12 04:30:00,
2013-03-12 00:35:00,52.6,52.0,29.75,SW,223,4.8,4.8,97,0.00,,,0.01,dv,2013-03-12 04:35:00,
2013-03-12 00:40:00,52.7,51.9,29.75,WNW,282,6.4,6.4,96,0.00,,,0.01,dv,2013-03-12 04:40:00,
2013-03-12 00:45:00,52.5,51.9,29.74,West,271,8.1,8.1,97,0.00,,,0.01,dv,2013-03-12 04:45:00,
2013-03-12 00:50:00,52.4,51.8,29.74,West,265,11.3,11.3,97,0.00,,,0.01,dv,2013-03-12 04:50:00,
2013-03-12 00:55:00,52.4,51.8,29.73,SW,221,11.3,11.3,97,0.00,,,0.01,dv,2013-03-12 04:55:00,
2013-03-12 01:00:00,52.2,51.6,29.73,SSW,210,11.3,11.3,97,0.00,,,0.01,dv,2013-03-12 05:00:00,
2013-03-12 01:05:00,52.1,51.5,29.73,WSW,243,9.7,9.7,97,0.01,,,0.01,dv,2013-03-12 05:05:00,
2013-03-12 01:10:00,52.0,51.4,29.72,SSW,202,8.1,8.1,97,0.01,,,0.01,dv,2013-03-12 05:10:00,
2013-03-12 01:15:00,51.9,51.1,29.72,WSW,252,9.7,9.7,96,0.01,,,0.01,dv,2013-03-12 05:15:00,
2013-03-12 01:20:00,51.7,50.9,29.73,WSW,258,6.4,6.4,96,0.02,,,0.02,dv,2013-03-12 05:20:00,
2013-03-12 01:25:00,51.5,50.7,29.74,SW,222,8.1,8.1,96,0.02,,,0.02,dv,2013-03-12 05:25:00,
2013-03-12 01:30:00,51.3,50.5,29.73,West,278,8.1,8.1,96,0.01,,,0.02,dv,2013-03-12 05:30:00,
2013-03-12 01:35:00,51.2,50.4,29.73,WSW,258,8.1,8.1,96,0.01,,,0.02,dv,2013-03-12 05:35:00,
2013-03-12 01:40:00,51.1,50.3,29.72,WNW,287,6.4,6.4,96,0.01,,,0.02,dv,2013-03-12 05:40:00,
2013-03-12 01:45:00,51.0,50.2,29.72,West,272,11.3,11.3,96,0.01,,,0.02,dv,2013-03-12 05:45:00,
2013-03-12 01:50:00,50.8,50.0,29.73,West,268,4.8,4.8,96,0.01,,,0.02,dv,2013-03-12 05:50:00,
2013-03-12 01:55:00,50.7,49.9,29.73,SW,216,9.7,9.7,96,0.01,,,0.02,dv,2013-03-12 05:55:00,
2013-03-12 02:00:00,50.5,49.7,29.72,WSW,242,11.3,11.3,96,0.01,,,0.02,dv,2013-03-12 06:00:00,
2013-03-12 02:05:00,50.5,49.7,29.72,WNW,293,8.1,8.1,96,0.01,,,0.02,dv,2013-03-12 06:05:00,
2013-03-12 02:10:00,50.3,49.5,29.73,SSW,202,4.8,4.8,96,0.01,,,0.02,dv,2013-03-12 06:10:00,
2013-03-12 02:15:00,50.3,49.5,29.73,NW,306,6.4,6.4,96,0.01,,,0.02,dv,2013-03-12 06:15:00,
2013-03-12 02:20:00,50.1,49.3,29.74,WSW,238,8.1,8.1,96,0.01,,,0.03,dv,2013-03-12 06:20:00,
2013-03-12 02:25:00,49.9,49.1,29.73,West,262,9.7,9.7,96,0.01,,,0.03,dv,2013-03-12 06:25:00,
2013-03-12 02:30:00,49.6,48.8,29.73,SSW,205,8.1,8.1,96,0.01,,,0.03,dv,2013-03-12 06:30:00,
2013-03-12 02:40:00,49.3,48.5,29.74,WSW,239,9.7,9.7,96,0.01,,,0.03,dv,2013-03-12 06:40:00,
2013-03-12 02:45:00,49.0,48.0,29.73,West,271,8.1,8.1,95,0.01,,,0.03,dv,2013-03-12 06:45:00,
2013-03-12 02:50:00,48.9,47.9,29.73,SW,225,14.5,14.5,95,0.01,,,0.03,dv,2013-03-12 06:50:00,
2013-03-12 02:55:00,48.8,47.8,29.73,SSW,212,11.3,11.3,95,0.01,,,0.03,dv,2013-03-12 06:55:00,
2013-03-12 03:00:00,48.6,47.8,29.73,WSW,249,8.1,8.1,96,0.01,,,0.03,dv,2013-03-12 07:00:00,
2013-03-12 03:05:00,48.5,47.7,29.74,West,264,8.1,8.1,96,0.01,,,0.03,dv,2013-03-12 07:05:00,
2013-03-12 03:10:00,48.3,47.5,29.73,West,259,11.3,11.3,96,0.01,,,0.03,dv,2013-03-12 07:10:00,
2013-03-12 03:15:00,48.2,47.2,29.73,SW,227,9.7,9.7,95,0.01,,,0.03,dv,2013-03-12 07:15:00,
2013-03-12 03:20:00,47.8,46.8,29.73,WSW,239,9.7,9.7,95,0.00,,,0.03,dv,2013-03-12 07:20:00,
2013-03-12 03:25:00,47.8,47.0,29.74,South,189,8.1,8.1,96,0.00,,,0.03,dv,2013-03-12 07:25:00,
2013-03-12 03:30:00,47.6,46.8,29.73,WNW,297,8.1,8.1,96,0.00,,,0.03,dv,2013-03-12 07:30:00,
2013-03-12 03:35:00,47.4,46.4,29.72,SW,218,8.1,8.1,95,0.00,,,0.03,dv,2013-03-12 07:35:00,
2013-03-12 03:40:00,47.2,46.2,29.72,West,265,11.3,11.3,95,0.00,,,0.03,dv,2013-03-12 07:40:00,
2013-03-12 03:45:00,46.9,45.9,29.73,West,263,9.7,9.7,95,0.00,,,0.03,dv,2013-03-12 07:45:00,
2013-03-12 03:50:00,46.7,45.7,29.72,SW,223,8.1,8.1,95,0.00,,,0.03,dv,2013-03-12 07:50:00,
2013-03-12 03:55:00,46.5,45.5,29.73,WSW,243,12.9,12.9,95,0.00,,,0.03,dv,2013-03-12 07:55:00,
2013-03-12 04:00:00,46.2,45.2,29.73,SW,233,11.3,11.3,95,0.00,,,0.03,dv,2013-03-12 08:00:00,
2013-03-12 04:05:00,46.0,45.0,29.73,West,274,11.3,11.3,95,0.00,,,0.03,dv,2013-03-12 08:05:00,
2013-03-12 04:10:00,45.7,44.7,29.73,SSW,213,11.3,11.3,95,0.00,,,0.03,dv,2013-03-12 08:10:00,
2013-03-12 04:15:00,45.5,44.5,29.73,SSW,212,9.7,9.7,95,0.00,,,0.03,dv,2013-03-12 08:15:00,
2013-03-12 04:20:00,45.3,44.3,29.73,West,269,9.7,9.7,95,0.00,,,0.03,dv,2013-03-12 08:20:00,
2013-03-12 04:25:00,45.0,44.0,29.73,WSW,245,16.1,16.1,95,0.00,,,0.03,dv,2013-03-12 08:25:00,
2013-03-12 04:30:00,44.9,43.9,29.73,WSW,253,11.3,11.3,95,0.00,,,0.03,dv,2013-03-12 08:30:00,
2013-03-12 04:35:00,44.7,43.7,29.73,WNW,284,11.3,11.3,95,0.00,,,0.03,dv,2013-03-12 08:35:00,
2013-03-12 04:40:00,44.5,43.5,29.74,SSW,198,8.1,8.1,95,0.00,,,0.03,dv,2013-03-12 08:40:00,
2013-03-12 04:45:00,44.5,43.5,29.73,WSW,240,6.4,6.4,95,0.00,,,0.03,dv,2013-03-12 08:45:00,
2013-03-12 04:50:00,44.4,43.4,29.73,WSW,241,9.7,9.7,95,0.00,,,0.03,dv,2013-03-12 08:50:00,
2013-03-12 04:55:00,44.3,43.3,29.73,WSW,252,4.8,4.8,95,0.00,,,0.03,dv,2013-03-12 08:55:00,
2013-03-12 05:00:00,44.3,43.3,29.74,SW,218,11.3,11.3,95,0.00,,,0.03,dv,2013-03-12 09:00:00,
2013-03-12 05:05:00,44.1,43.3,29.74,West,268,8.1,8.1,96,0.00,,,0.03,dv,2013-03-12 09:05:00,
2013-03-12 05:10:00,44.0,43.0,29.74,West,266,8.1,8.1,95,0.00,,,0.03,dv,2013-03-12 09:10:00,
2013-03-12 05:15:00,43.9,42.9,29.74,SW,225,12.9,12.9,95,0.00,,,0.03,dv,2013-03-12 09:15:00,
2013-03-12 05:20:00,43.9,42.9,29.74,WSW,253,6.4,6.4,95,0.00,,,0.03,dv,2013-03-12 09:20:00,
2013-03-12 05:25:00,43.9,43.1,29.74,West,273,8.1,8.1,96,0.00,,,0.03,dv,2013-03-12 09:25:00,
2013-03-12 05:30:00,43.8,42.8,29.74,SW,224,8.1,8.1,95,0.00,,,0.03,dv,2013-03-12 09:30:00,
2013-03-12 05:35:00,43.7,42.9,29.75,WSW,237,9.7,9.7,96,0.00,,,0.03,dv,2013-03-12 09:35:00,
2013-03-12 05:40:00,43.6,42.8,29.74,WSW,238,8.1,8.1,96,0.00,,,0.03,dv,2013-03-12 09:40:00,
2013-03-12 05:45:00,43.4,42.6,29.75,WNW,290,8.1,8.1,96,0.00,,,0.03,dv,2013-03-12 09:45:00,
2013-03-12 05:50:00,43.4,42.6,29.75,South,188,9.7,9.7,96,0.00,,,0.03,dv,2013-03-12 09:50:00,
2013-03-12 05:55:00,43.2,42.4,29.75,WSW,255,8.1,8.1,96,0.00,,,0.03,dv,2013-03-12 09:55:00,
2013-03-12 06:00:00,43.0,42.0,29.76,SW,227,4.8,4.8,95,0.00,,,0.03,dv,2013-03-12 10:00:00,
2013-03-12 06:05:00,42.7,41.7,29.75,WSW,258,6.4,6.4,95,0.00,,,0.03,dv,2013-03-12 10:05:00,
2013-03-12 06:10:00,42.5,41.5,29.75,WSW,246,6.4,6.4,95,0.00,,,0.03,dv,2013-03-12 10:10:00,
2013-03-12 06:15:00,42.3,41.1,29.75,WNW,289,8.1,8.1,94,0.00,,,0.03,dv,2013-03-12 10:15:00,
2013-03-12 06:20:00,42.0,40.8,29.75,West,261,8.1,8.1,94,0.00,,,0.03,dv,2013-03-12 10:20:00,
2013-03-12 06:25:00,41.7,40.5,29.75,WSW,243,3.2,3.2,94,0.00,,,0.03,dv,2013-03-12 10:25:00,
2013-03-12 06:30:00,41.4,40.2,29.76,WNW,291,9.7,9.7,94,0.00,,,0.03,dv,2013-03-12 10:30:00,
2013-03-12 06:35:00,41.4,40.2,29.75,WSW,257,4.8,4.8,94,0.00,,,0.03,dv,2013-03-12 10:35:00,
2013-03-12 06:40:00,41.2,40.0,29.77,WSW,238,8.1,8.1,94,0.00,,,0.03,dv,2013-03-12 10:40:00,
2013-03-12 06:45:00,41.0,39.6,29.77,WNW,290,4.8,4.8,93,0.00,,,0.03,dv,2013-03-12 10:45:00,
2013-03-12 06:50:00,40.8,39.6,29.77,West,261,6.4,6.4,94,0.00,,,0.03,dv,2013-03-12 10:50:00,
2013-03-12 07:00:00,40.4,39.0,29.78,SW,235,9.7,9.7,93,0.00,,,0.03,dv,2013-03-12 11:00:00,
2013-03-12 07:05:00,40.3,39.0,29.78,SW,230,9.7,9.7,93,0.00,,,0.03,dv,2013-03-12 11:05:00,
2013-03-12 07:10:00,40.3,39.0,29.78,WSW,247,4.8,4.8,93,0.00,,,0.03,dv,2013-03-12 11:10:00,
2013-03-12 07:15:00,40.2,38.9,29.79,WNW,294,9.7,9.7,93,0.00,,,0.03,dv,2013-03-12 11:15:00,
2013-03-12 07:20:00,40.1,38.8,29.79,WNW,297,8.1,8.1,93,0.00,,,0.03,dv,2013-03-12 11:20:00,
2013-03-12 07:25:00,39.9,38.6,29.79,WNW,282,6.4,6.4,93,0.00,,,0.03,dv,2013-03-12 11:25:00,
2013-03-12 07:30:00,39.8,38.5,29.79,SW,223,12.9,12.9,93,0.00,,,0.03,dv,2013-03-12 11:30:00,
2013-03-12 07:35:00,39.7,38.2,29.81,WSW,256,6.4,6.4,92,0.00,,,0.03,dv,2013-03-12 11:35:00,
2013-03-12 07:40:00,39.6,38.1,29.81,West,271,6.4,6.4,92,0.00,,,0.03,dv,2013-03-12 11:40:00,
2013-03-12 07:45:00,39.4,37.9,29.81,West,277,9.7,9.7,92,0.00,,,0.03,dv,2013-03-12 11:45:00,
2013-03-12 07:50:00,39.3,37.8,29.81,West,273,12.9,12.9,92,0.00,,,0.03,dv,2013-03-12 11:50:00,
2013-03-12 07:55:00,39.2,37.7,29.81,WNW,285,9.7,9.7,92,0.00,,,0.03,dv,2013-03-12 11:55:00,
2013-03-12 08:05:00,38.9,37.4,29.81,WSW,242,11.3,11.3,92,0.00,,,0.03,dv,2013-03-12 12:05:00,
2013-03-12 08:10:00,38.8,37.1,29.81,West,263,9.7,9.7,91,0.00,,,0.03,dv,2013-03-12 12:10:00,
2013-03-12 08:15:00,38.8,37.1,29.81,WSW,240,11.3,11.3,91,0.00,,,0.03,dv,2013-03-12 12:15:00,
2013-03-12 08:20:00,38.6,36.9,29.81,WSW,256,16.1,16.1,91,0.00,,,0.03,dv,2013-03-12 12:20:00,
2013-03-12 08:25:00,38.5,36.6,29.82,West,265,9.7,9.7,90,0.00,,,0.03,dv,2013-03-12 12:25:00,
2013-03-12 08:30:00,38.5,36.6,29.82,West,271,6.4,6.4,90,0.00,,,0.03,dv,2013-03-12 12:30:00,
2013-03-12 08:35:00,38.4,36.5,29.82,WNW,294,8.1,8.1,90,0.00,,,0.03,dv,2013-03-12 12:35:00,
2013-03-12 08:45:00,38.6,36.7,29.82,NW,306,11.3,11.3,90,0.00,,,0.03,dv,2013-03-12 12:45:00,
2013-03-12 08:50:00,38.6,36.5,29.82,WSW,248,4.8,4.8,89,0.00,,,0.03,dv,2013-03-12 12:50:00,
2013-03-12 08:55:00,38.7,36.4,29.82,WSW,256,9.7,9.7,88,0.00,,,0.03,dv,2013-03-12 12:55:00,
2013-03-12 09:00:00,38.8,36.5,29.82,West,266,6.4,6.4,88,0.00,,,0.03,dv,2013-03-12 13:00:00,
2013-03-12 09:05:00,38.9,36.8,29.82,WSW,250,9.7,9.7,89,0.00,,,0.03,dv,2013-03-12 13:05:00,
2013-03-12 09:10:00,39.1,36.7,29.83,West,261,11.3,11.3,88,0.00,,,0.03,dv,2013-03-12 13:10:00,
2013-03-12 09:20:00,39.2,36.6,29.83,WNW,298,11.3,11.3,87,0.00,,,0.03,dv,2013-03-12 13:20:00,
2013-03-12 09:25:00,39.4,36.8,29.83,WSW,248,4.8,4.8,87,0.00,,,0.03,dv,2013-03-12 13:25:00,
2013-03-12 09:30:00,39.6,37.0,29.83,SSW,209,9.7,9.7,87,0.00,,,0.03,dv,2013-03-12 13:30:00,
2013-03-12 09:35:00,39.7,36.7,29.83,ENE,67,6.4,6.4,85,0.00,,,0.03,dv,2013-03-12 13:35:00,
2013-03-12 09:40:00,40.0,37.0,29.83,WSW,254,8.1,8.1,85,0.00,,,0.03,dv,2013-03-12 13:40:00,
2013-03-12 09:45:00,40.3,37.1,29.84,NW,311,9.7,9.7,84,0.00,,,0.03,dv,2013-03-12 13:45:00,
2013-03-12 09:50:00,40.6,37.4,29.84,WSW,242,12.9,12.9,84,0.00,,,0.03,dv,2013-03-12 13:50:00,
2013-03-12 09:55:00,40.9,37.2,29.84,ENE,65,9.7,9.7,82,0.00,,,0.03,dv,2013-03-12 13:55:00,
2013-03-12 10:00:00,41.1,37.0,29.84,ENE,75,6.4,6.4,80,0.00,,,0.03,dv,2013-03-12 14:00:00,
2013-03-12 10:10:00,41.8,37.9,29.84,West,268,11.3,11.3,81,0.00,,,0.03,dv,2013-03-12 14:10:00,
2013-03-12 10:15:00,42.2,38.0,29.84,West,264,14.5,14.5,80,0.00,,,0.03,dv,2013-03-12 14:15:00,
2013-03-12 10:20:00,42.4,38.0,29.85,WSW,250,12.9,12.9,79,0.00,,,0.03,dv,2013-03-12 14:20:00,
2013-03-12 10:25:00,42.7,38.5,29.84,WSW,249,14.5,14.5,80,0.00,,,0.03,dv,2013-03-12 14:25:00,
2013-03-12 10:30:00,42.9,38.0,29.85,West,271,12.9,12.9,77,0.00,,,0.03,dv,2013-03-12 14:30:00,
2013-03-12 10:35:00,43.2,38.8,29.85,SSW,198,12.9,12.9,79,0.00,,,0.03,dv,2013-03-12 14:35:00,
2013-03-12 10:40:00,43.5,38.8,29.85,NE,53,12.9,12.9,78,0.00,,,0.03,dv,2013-03-12 14:40:00,
2013-03-12 10:45:00,43.9,39.2,29.86,West,281,12.9,12.9,78,0.00,,,0.03,dv,2013-03-12 14:45:00,
2013-03-12 10:50:00,44.3,38.1,29.86,ENE,65,8.1,8.1,72,0.00,,,0.03,dv,2013-03-12 14:50:00,
2013-03-12 10:55:00,44.7,38.2,29.86,WSW,252,6.4,6.4,71,0.00,,,0.03,dv,2013-03-12 14:55:00,
2013-03-12 11:00:00,45.1,39.1,29.86,SW,228,14.5,14.5,73,0.00,,,0.03,dv,2013-03-12 15:00:00,
2013-03-12 11:05:00,45.2,39.2,29.87,WSW,246,12.9,12.9,73,0.00,,,0.03,dv,2013-03-12 15:05:00,
2013-03-12 11:15:00,46.1,39.3,29.87,WSW,251,9.7,9.7,70,0.00,,,0.03,dv,2013-03-12 15:15:00,
2013-03-12 11:20:00,46.4,39.9,29.87,WSW,252,14.5,14.5,71,0.00,,,0.03,dv,2013-03-12 15:20:00,
2013-03-12 11:25:00,46.7,39.1,29.87,NNW,328,12.9,12.9,67,0.00,,,0.03,dv,2013-03-12 15:25:00,
2013-03-12 11:30:00,46.9,39.5,29.87,WNW,287,17.7,17.7,68,0.00,,,0.03,dv,2013-03-12 15:30:00,
2013-03-12 11:35:00,47.1,39.4,29.87,West,266,11.3,11.3,67,0.00,,,0.03,dv,2013-03-12 15:35:00,
2013-03-12 11:40:00,47.4,39.2,29.87,NNW,329,11.3,11.3,65,0.00,,,0.03,dv,2013-03-12 15:40:00,
2013-03-12 11:45:00,47.8,40.1,29.88,North,1,12.9,12.9,67,0.00,,,0.03,dv,2013-03-12 15:45:00,
2013-03-12 11:50:00,48.3,39.1,29.88,NW,320,11.3,11.3,62,0.00,,,0.03,dv,2013-03-12 15:50:00,
2013-03-12 11:55:00,48.6,40.9,29.89,West,280,11.3,11.3,67,0.00,,,0.03,dv,2013-03-12 15:55:00,
2013-03-12 12:00:00,48.8,41.6,29.88,West,266,11.3,11.3,69,0.00,,,0.03,dv,2013-03-12 16:00:00,
2013-03-12 12:05:00,49.0,41.2,29.88,West,260,8.1,8.1,67,0.00,,,0.03,dv,2013-03-12 16:05:00,
2013-03-12 12:10:00,49.4,41.6,29.88,WSW,245,16.1,16.1,67,0.00,,,0.03,dv,2013-03-12 16:10:00,
2013-03-12 12:15:00,49.8,40.8,29.88,WNW,302,17.7,17.7,63,0.00,,,0.03,dv,2013-03-12 16:15:00,
2013-03-12 12:20:00,50.3,40.7,29.89,West,261,12.9,12.9,61,0.00,,,0.03,dv,2013-03-12 16:20:00,
2013-03-12 12:25:00,50.6,40.0,29.89,WSW,248,14.5,14.5,58,0.00,,,0.03,dv,2013-03-12 16:25:00,
2013-03-12 12:30:00,50.9,40.9,29.89,NNE,12,17.7,17.7,60,0.00,,,0.03,dv,2013-03-12 16:30:00,
2013-03-12 12:35:00,51.3,38.3,29.89,NW,324,12.9,12.9,51,0.00,,,0.03,dv,2013-03-12 16:35:00,
2013-03-12 12:40:00,51.5,40.5,29.89,WSW,250,20.9,20.9,57,0.00,,,0.03,dv,2013-03-12 16:40:00,
2013-03-12 12:45:00,51.5,39.9,29.89,SW,225,14.5,14.5,55,0.00,,,0.03,dv,2013-03-12 16:45:00,
2013-03-12 12:50:00,51.8,38.7,29.88,West,259,12.9,12.9,51,0.00,,,0.03,dv,2013-03-12 16:50:00,
2013-03-12 12:55:00,52.1,38.6,29.89,NE,38,12.9,12.9,50,0.00,,,0.03,dv,2013-03-12 16:55:00,
2013-03-12 13:00:00,52.5,36.6,29.88,ENE,68,12.9,12.9,44,0.00,,,0.03,dv,2013-03-12 17:00:00,
2013-03-12 13:05:00,52.9,38.2,29.88,SSW,209,9.7,9.7,47,0.00,,,0.03,dv,2013-03-12 17:05:00,
2013-03-12 13:10:00,53.3,38.2,29.88,WSW,243,9.7,9.7,46,0.00,,,0.03,dv,2013-03-12 17:10:00,
2013-03-12 13:15:00,53.5,39.2,29.88,NNW,329,9.7,9.7,48,0.00,,,0.03,dv,2013-03-12 17:15:00,
2013-03-12 13:20:00,53.8,38.6,29.89,West,265,12.9,12.9,46,0.00,,,0.03,dv,2013-03-12 17:20:00,
2013-03-12 13:25:00,53.8,37.8,29.88,NE,55,19.3,19.3,44,0.00,,,0.03,dv,2013-03-12 17:25:00,
2013-03-12 13:30:00,54.1,37.7,29.88,WNW,289,20.9,20.9,43,0.00,,,0.03,dv,2013-03-12 17:30:00,
2013-03-12 13:35:00,54.5,40.8,29.88,WSW,241,14.5,14.5,50,0.00,,,0.03,dv,2013-03-12 17:35:00,
2013-03-12 13:40:00,54.8,38.3,29.88,WNW,288,14.5,14.5,43,0.00,,,0.03,dv,2013-03-12 17:40:00,
2013-03-12 13:45:00,55.3,36.5,29.88,ENE,67,6.4,6.4,38,0.00,,,0.03,dv,2013-03-12 17:45:00,
2013-03-12 13:50:00,55.8,39.2,29.88,SSW,197,19.3,19.3,43,0.00,,,0.03,dv,2013-03-12 17:50:00,
2013-03-12 13:55:00,56.0,38.5,29.88,West,259,12.9,12.9,41,0.00,,,0.03,dv,2013-03-12 17:55:00,
2013-03-12 14:00:00,56.2,38.2,29.88,West,278,16.1,16.1,40,0.00,,,0.03,dv,2013-03-12 18:00:00,
2013-03-12 14:05:00,56.4,40.1,29.88,WSW,247,12.9,12.9,44,0.00,,,0.03,dv,2013-03-12 18:05:00,
2013-03-12 14:10:00,56.7,38.6,29.88,WSW,245,17.7,17.7,40,0.00,,,0.03,dv,2013-03-12 18:10:00,
2013-03-12 14:15:00,57.0,41.1,29.88,WSW,244,14.5,14.5,45,0.00,,,0.03,dv,2013-03-12 18:15:00,
2013-03-12 14:20:00,57.1,37.5,29.88,NW,319,20.9,20.9,37,0.00,,,0.03,dv,2013-03-12 18:20:00,
2013-03-12 14:25:00,57.4,37.8,29.88,NE,53,12.9,12.9,37,0.00,,,0.03,dv,2013-03-12 18:25:00,
2013-03-12 14:30:00,57.8,36.6,29.88,SSW,208,17.7,17.7,34,0.00,,,0.03,dv,2013-03-12 18:30:00,
2013-03-12 14:35:00,58.1,38.4,29.88,WSW,245,14.5,14.5,37,0.00,,,0.03,dv,2013-03-12 18:35:00,
2013-03-12 14:40:00,58.4,39.7,29.88,SSW,194,12.9,12.9,39,0.00,,,0.03,dv,2013-03-12 18:40:00,
2013-03-12 14:45:00,58.7,37.9,29.87,West,276,12.9,12.9,35,0.00,,,0.03,dv,2013-03-12 18:45:00,
2013-03-12 14:50:00,59.0,40.2,29.87,West,259,17.7,17.7,39,0.00,,,0.03,dv,2013-03-12 18:50:00,
2013-03-12 14:55:00,59.0,40.2,29.88,WNW,301,17.7,17.7,39,0.00,,,0.03,dv,2013-03-12 18:55:00,
2013-03-12 15:00:00,58.7,40.4,29.87,West,263,25.7,25.7,40,0.00,,,0.03,dv,2013-03-12 19:00:00,
2013-03-12 15:05:00,58.8,38.5,29.87,WSW,251,14.5,14.5,36,0.00,,,0.03,dv,2013-03-12 19:05:00,
2013-03-12 15:10:00,59.2,40.8,29.87,NW,308,17.7,17.7,40,0.00,,,0.03,dv,2013-03-12 19:10:00,
2013-03-12 15:15:00,59.1,41.2,29.87,West,262,22.5,22.5,41,0.00,,,0.03,dv,2013-03-12 19:15:00,
2013-03-12 15:20:00,58.7,40.9,29.87,South,170,20.9,20.9,41,0.00,,,0.03,dv,2013-03-12 19:20:00,
2013-03-12 15:25:00,58.6,38.3,29.87,West,272,20.9,20.9,36,0.00,,,0.03,dv,2013-03-12 19:25:00,
2013-03-12 15:30:00,58.4,39.7,29.87,WSW,239,20.9,20.9,39,0.00,,,0.03,dv,2013-03-12 19:30:00,
2013-03-12 15:35:00,58.4,39.7,29.87,North,359,19.3,19.3,39,0.00,,,0.03,dv,2013-03-12 19:35:00,
2013-03-12 15:40:00,58.6,40.8,29.87,WSW,250,16.1,16.1,41,0.00,,,0.03,dv,2013-03-12 19:40:00,
2013-03-12 15:45:00,58.5,37.7,29.87,NE,53,20.9,20.9,35,0.00,,,0.03,dv,2013-03-12 19:45:00,
2013-03-12 15:50:00,58.3,36.5,29.87,East,81,17.7,17.7,33,0.00,,,0.03,dv,2013-03-12 19:50:00,
2013-03-12 15:55:00,58.2,39.0,29.87,WSW,250,11.3,11.3,38,0.00,,,0.03,dv,2013-03-12 19:55:00,
2013-03-12 16:00:00,58.1,38.9,29.87,WNW,283,12.9,12.9,38,0.00,,,0.03,dv,2013-03-12 20:00:00,
2013-03-12 16:05:00,58.1,37.9,29.87,NNW,342,20.9,20.9,36,0.00,,,0.03,dv,2013-03-12 20:05:00,
2013-03-12 16:10:00,58.1,37.4,29.87,ENE,67,17.7,17.7,35,0.00,,,0.03,dv,2013-03-12 20:10:00,
2013-03-12 16:15:00,58.1,37.4,29.88,NE,55,14.5,14.5,35,0.00,,,0.03,dv,2013-03-12 20:15:00,
2013-03-12 16:25:00,58.3,37.0,29.87,NNE,20,12.9,12.9,34,0.00,,,0.03,dv,2013-03-12 20:25:00,
2013-03-12 16:30:00,58.4,37.6,29.87,SSE,147,16.1,16.1,35,0.00,,,0.03,dv,2013-03-12 20:30:00,
2013-03-12 16:35:00,58.5,38.3,29.87,West,270,12.9,12.9,36,0.00,,,0.03,dv,2013-03-12 20:35:00,
2013-03-12 16:40:00,58.7,38.4,29.87,NNE,30,9.7,9.7,36,0.00,,,0.03,dv,2013-03-12 20:40:00,
2013-03-12 16:45:00,58.8,39.5,29.87,WSW,253,12.9,12.9,38,0.00,,,0.03,dv,2013-03-12 20:45:00,
2013-03-12 16:50:00,58.9,38.1,29.87,WNW,297,12.9,12.9,35,0.00,,,0.03,dv,2013-03-12 20:50:00,
2013-03-12 16:55:00,58.8,36.9,29.87,NNW,330,14.5,14.5,33,0.00,,,0.03,dv,2013-03-12 20:55:00,
2013-03-12 17:00:00,58.9,37.5,29.88,West,261,16.1,16.1,34,0.00,,,0.03,dv,2013-03-12 21:00:00,
2013-03-12 17:10:00,58.8,38.5,29.88,WSW,244,20.9,20.9,36,0.00,,,0.03,dv,2013-03-12 21:10:00,
2013-03-12 17:20:00,58.3,35.9,29.88,NNW,337,19.3,19.3,32,0.00,,,0.03,dv,2013-03-12 21:20:00,
2013-03-12 17:25:00,58.3,36.5,29.89,NNW,328,20.9,20.9,33,0.00,,,0.03,dv,2013-03-12 21:25:00,
2013-03-12 17:30:00,58.2,35.3,29.89,NNW,335,14.5,14.5,31,0.00,,,0.03,dv,2013-03-12 21:30:00,
2013-03-12 17:35:00,58.2,36.4,29.89,SW,216,14.5,14.5,33,0.00,,,0.03,dv,2013-03-12 21:35:00,
2013-03-12 17:40:00,58.1,37.9,29.89,WSW,251,11.3,11.3,36,0.00,,,0.03,dv,2013-03-12 21:40:00,
2013-03-12 17:45:00,58.2,36.4,29.89,West,272,19.3,19.3,33,0.00,,,0.03,dv,2013-03-12 21:45:00,
2013-03-12 17:50:00,58.1,37.9,29.89,West,261,16.1,16.1,36,0.00,,,0.03,dv,2013-03-12 21:50:00,
2013-03-12 17:55:00,57.9,36.7,29.90,ESE,111,20.9,20.9,34,0.00,,,0.03,dv,2013-03-12 21:55:00,
2013-03-12 18:00:00,57.9,38.2,29.89,WSW,257,14.5,14.5,37,0.00,,,0.03,dv,2013-03-12 22:00:00,
2013-03-12 18:05:00,57.8,36.6,29.89,East,79,8.1,8.1,34,0.00,,,0.03,dv,2013-03-12 22:05:00,
2013-03-12 18:10:00,57.7,36.0,29.90,West,271,11.3,11.3,33,0.00,,,0.03,dv,2013-03-12 22:10:00,
2013-03-12 18:15:00,57.6,35.9,29.90,ENE,65,14.5,14.5,33,0.00,,,0.03,dv,2013-03-12 22:15:00,
2013-03-12 18:20:00,57.4,35.7,29.90,East,86,12.9,12.9,33,0.00,,,0.03,dv,2013-03-12 22:20:00,
2013-03-12 18:25:00,57.2,37.1,29.90,WSW,242,9.7,9.7,36,0.00,,,0.03,dv,2013-03-12 22:25:00,
2013-03-12 18:30:00,57.0,35.9,29.90,North,11,8.1,8.1,34,0.00,,,0.03,dv,2013-03-12 22:30:00,
2013-03-12 18:35:00,56.8,35.2,29.91,WNW,283,14.5,14.5,33,0.00,,,0.03,dv,2013-03-12 22:35:00,
2013-03-12 18:40:00,56.6,36.6,29.91,NW,308,11.3,11.3,36,0.00,,,0.03,dv,2013-03-12 22:40:00,
2013-03-12 18:45:00,56.4,35.4,29.91,WSW,239,12.9,12.9,34,0.00,,,0.03,dv,2013-03-12 22:45:00,
2013-03-12 18:50:00,56.2,35.2,29.92,NE,54,8.1,8.1,34,0.00,,,0.03,dv,2013-03-12 22:50:00,
2013-03-12 18:55:00,56.0,36.1,29.92,WNW,297,8.1,8.1,36,0.00,,,0.03,dv,2013-03-12 22:55:00,
2013-03-12 19:00:00,55.6,36.2,29.92,West,271,17.7,17.7,37,0.00,,,0.03,dv,2013-03-12 23:00:00,
2013-03-12 19:05:00,55.0,35.2,29.93,WSW,241,12.9,12.9,36,0.00,,,0.03,dv,2013-03-12 23:05:00,
2013-03-12 19:15:00,54.2,35.5,29.94,West,263,12.9,12.9,38,0.00,,,0.03,dv,2013-03-12 23:15:00,
2013-03-12 19:20:00,53.7,35.0,29.94,East,90,12.9,12.9,38,0.00,,,0.03,dv,2013-03-12 23:20:00,
2013-03-12 19:25:00,53.4,34.8,29.94,SW,230,11.3,11.3,38,0.00,,,0.03,dv,2013-03-12 23:25:00,
2013-03-12 19:30:00,53.0,34.0,29.95,WNW,302,22.5,22.5,37,0.00,,,0.03,dv,2013-03-12 23:30:00,
2013-03-12 19:35:00,52.8,34.3,29.95,SW,226,14.5,14.5,38,0.00,,,0.03,dv,2013-03-12 23:35:00,
2013-03-12 19:45:00,52.4,34.4,29.96,West,281,11.3,11.3,39,0.00,,,0.03,dv,2013-03-12 23:45:00,
2013-03-12 19:50:00,52.0,33.1,29.96,ENE,77,9.7,9.7,37,0.00,,,0.03,dv,2013-03-12 23:50:00,
2013-03-12 19:55:00,51.7,33.3,29.96,WSW,249,8.1,8.1,38,0.00,,,0.03,dv,2013-03-12 23:55:00,
2013-03-12 20:00:00,51.3,33.4,29.96,SW,223,6.4,6.4,39,0.00,,,0.03,dv,2013-03-13 00:00:00,
2013-03-12 20:05:00,51.0,33.6,29.96,SW,227,4.8,4.8,40,0.00,,,0.03,dv,2013-03-13 00:05:00,
2013-03-12 20:10:00,50.8,32.5,29.97,East,84,6.4,6.4,38,0.00,,,0.03,dv,2013-03-13 00:10:00,
2013-03-12 20:15:00,50.6,32.8,29.96,East,93,9.7,9.7,39,0.00,,,0.03,dv,2013-03-13 00:15:00,
2013-03-12 20:20:00,50.4,33.5,29.97,West,267,4.8,4.8,41,0.00,,,0.03,dv,2013-03-13 00:20:00,
2013-03-12 20:25:00,50.2,35.0,29.97,West,264,11.3,11.3,45,0.00,,,0.03,dv,2013-03-13 00:25:00,
2013-03-12 20:30:00,49.9,33.5,29.97,East,96,6.4,6.4,42,0.00,,,0.03,dv,2013-03-13 00:30:00,
2013-03-12 20:40:00,49.6,34.1,29.97,SSE,161,1.6,1.6,44,0.00,,,0.03,dv,2013-03-13 00:40:00,
2013-03-12 20:45:00,49.5,34.4,29.97,SW,227,1.6,1.6,45,0.00,,,0.03,dv,2013-03-13 00:45:00,
2013-03-12 20:50:00,49.3,34.6,29.97,SW,227,1.6,1.6,46,0.00,,,0.03,dv,2013-03-13 00:50:00,
2013-03-12 20:55:00,49.1,34.4,29.97,NW,312,3.2,3.2,46,0.00,,,0.03,dv,2013-03-13 00:55:00,
2013-03-12 21:00:00,48.9,34.6,29.97,WSW,245,3.2,3.2,47,0.00,,,0.03,dv,2013-03-13 01:00:00,
2013-03-12 21:05:00,48.7,34.4,29.97,WNW,290,3.2,3.2,47,0.00,,,0.03,dv,2013-03-13 01:05:00,
2013-03-12 21:15:00,48.2,34.7,29.98,West,268,3.2,3.2,49,0.00,,,0.03,dv,2013-03-13 01:15:00,
2013-03-12 21:20:00,48.0,34.5,29.98,SSE,161,3.2,3.2,49,0.00,,,0.03,dv,2013-03-13 01:20:00,
2013-03-12 21:25:00,47.7,35.0,29.99,WSW,256,4.8,4.8,51,0.00,,,0.03,dv,2013-03-13 01:25:00,
2013-03-12 21:30:00,47.5,34.4,29.99,West,264,3.2,3.2,50,0.00,,,0.03,dv,2013-03-13 01:30:00,
2013-03-12 21:40:00,47.3,34.3,29.99,West,260,1.6,1.6,50,0.00,,,0.03,dv,2013-03-13 01:40:00,
2013-03-12 21:50:00,47.1,34.4,29.99,SSW,209,4.8,4.8,51,0.00,,,0.03,dv,2013-03-13 01:50:00,
2013-03-12 21:55:00,47.0,34.3,29.99,SW,214,1.6,1.6,51,0.00,,,0.03,dv,2013-03-13 01:55:00,
2013-03-12 22:00:00,47.0,34.3,29.99,West,280,4.8,4.8,51,0.00,,,0.03,dv,2013-03-13 02:00:00,
2013-03-12 22:10:00,46.8,34.2,30.00,SW,214,3.2,3.2,51,0.00,,,0.03,dv,2013-03-13 02:10:00,
2013-03-12 22:15:00,46.7,34.8,30.00,WNW,296,8.1,8.1,53,0.00,,,0.03,dv,2013-03-13 02:15:00,
2013-03-12 22:20:00,46.6,34.0,30.00,WNW,293,8.1,8.1,51,0.00,,,0.03,dv,2013-03-13 02:20:00,
2013-03-12 22:25:00,46.6,34.7,30.00,West,274,4.8,4.8,53,0.00,,,0.03,dv,2013-03-13 02:25:00,
2013-03-12 22:30:00,46.5,34.6,30.00,West,279,8.1,8.1,53,0.00,,,0.03,dv,2013-03-13 02:30:00,
2013-03-12 22:35:00,46.4,34.8,30.01,WSW,255,8.1,8.1,54,0.00,,,0.03,dv,2013-03-13 02:35:00,
2013-03-12 22:40:00,46.3,34.7,30.01,West,267,6.4,6.4,54,0.00,,,0.03,dv,2013-03-13 02:40:00,
2013-03-12 22:45:00,46.2,35.0,30.01,West,259,6.4,6.4,55,0.00,,,0.03,dv,2013-03-13 02:45:00,
2013-03-12 22:50:00,46.0,34.5,30.01,WSW,257,8.1,8.1,54,0.00,,,0.03,dv,2013-03-13 02:50:00,
2013-03-12 22:55:00,45.9,34.4,30.01,SSW,203,6.4,6.4,54,0.00,,,0.03,dv,2013-03-13 02:55:00,
2013-03-12 23:00:00,45.9,34.4,30.01,West,263,8.1,8.1,54,0.00,,,0.03,dv,2013-03-13 03:00:00,
2013-03-12 23:05:00,45.9,34.7,30.01,WSW,252,9.7,9.7,55,0.00,,,0.03,dv,2013-03-13 03:05:00,
2013-03-12 23:10:00,45.8,34.3,30.02,WSW,243,6.4,6.4,54,0.00,,,0.03,dv,2013-03-13 03:10:00,
2013-03-12 23:15:00,45.7,34.2,30.02,NW,324,4.8,4.8,54,0.00,,,0.03,dv,2013-03-13 03:15:00,
2013-03-12 23:20:00,45.7,34.5,30.02,WNW,299,4.8,4.8,55,0.00,,,0.03,dv,2013-03-13 03:20:00,
2013-03-12 23:25:00,45.5,34.3,30.02,West,275,4.8,4.8,55,0.00,,,0.03,dv,2013-03-13 03:25:00,
2013-03-12 23:30:00,45.4,34.6,30.02,WNW,287,3.2,3.2,56,0.00,,,0.03,dv,2013-03-13 03:30:00,
2013-03-12 23:40:00,45.2,34.7,30.03,WSW,244,4.8,4.8,57,0.00,,,0.03,dv,2013-03-13 03:40:00,
2013-03-12 23:45:00,44.9,34.4,30.02,SW,224,4.8,4.8,57,0.00,,,0.03,dv,2013-03-13 03:45:00,
2013-03-12 23:50:00,44.8,34.6,30.03,SW,224,3.2,3.2,58,0.00,,,0.03,dv,2013-03-13 03:50:00,
2013-03-12 23:55:00,44.6,34.4,30.03,WSW,251,3.2,3.2,58,0.00,,,0.03,dv,2013-03-13 03:55:00,